When you browse on this site, cookies collect data to enhance your experience and personalize the content and advertising you see.
Visit our Privacy Policy to learn more. By continuing to use the site, you agree to this use of cookies and data.
  • In Romania
  • List of Countries
  • For 7 days
  • Water Temperature
  • Satellite Maps
  • Weather Map
  • Weather Widgets
  • user-avatar
    Login

    Hourly Weather Eruslanovka

    Today, 17 January, Thursday

    Time Temperature Precipitation Wind Pressure Humidity
    00:00 -2°C° 0.1 mm 2 mps 727 mmHg 78%
    01:00 -2°C° 0.1 mm 2 mps 727 mmHg 78%
    02:00 0°C° 0.1 mm 1 mps 727 mmHg 78%
    03:00 -3°C° 0 mm 2 mps 728 mmHg 75%
    04:00 -1°C° 0 mm 1 mps 728 mmHg 76%
    05:00 -1°C° 0 mm 1 mps 729 mmHg 77%
    06:00 -2°C° 0 mm 0 mps 729 mmHg 78%
    07:00 -2°C° 0 mm 0 mps 729 mmHg 77%
    08:00 -1°C° 0 mm 0 mps 730 mmHg 75%
    09:00 0°C° 0 mm 1 mps 730 mmHg 73%
    10:00 0°C° 0 mm 1 mps 730 mmHg 70%
    11:00 +1°C° 0 mm 1 mps 731 mmHg 67%
    12:00 -1°C° 0 mm 2 mps 731 mmHg 64%
    13:00 -1°C° 0 mm 2 mps 731 mmHg 65%
    14:00 +1°C° 0 mm 2 mps 732 mmHg 65%
    15:00 -1°C° 0 mm 3 mps 732 mmHg 69%
    16:00 -1°C° 0 mm 3 mps 732 mmHg 74%
    17:00 -2°C° 0 mm 2 mps 733 mmHg 78%
    18:00 -3°C° 0 mm 2 mps 733 mmHg 83%
    19:00 -1°C° 0 mm 1 mps 734 mmHg 83%
    20:00 -1°C° 0 mm 1 mps 734 mmHg 84%
    21:00 -1°C° 0 mm 1 mps 734 mmHg 84%
    22:00 -1°C° 0 mm 1 mps 735 mmHg 82%
    23:00 -1°C° 0 mm 1 mps 735 mmHg 81%

    Tomorrow, 18 January, Friday

    Time Temperature Precipitation Wind Pressure Humidity
    00:00 -1°C° 0 mm 1 mps 735 mmHg 80%
    01:00 -1°C° 0 mm 1 mps 735 mmHg 78%
    02:00 -1°C° 0 mm 1 mps 736 mmHg 76%
    03:00 -1°C° 0 mm 1 mps 736 mmHg 74%
    04:00 -1°C° 0 mm 1 mps 736 mmHg 72%
    05:00 -1°C° 0 mm 1 mps 736 mmHg 69%
    06:00 0°C° 0 mm 1 mps 736 mmHg 66%
    07:00 0°C° 0 mm 1 mps 736 mmHg 61%
    08:00 +1°C° 0 mm 1 mps 736 mmHg 56%
    09:00 +1°C° 0 mm 1 mps 737 mmHg 52%
    10:00 +3°C° 0 mm 1 mps 736 mmHg 46%
    11:00 +4°C° 0 mm 1 mps 736 mmHg 41%
    12:00 +4°C° 0 mm 0 mps 736 mmHg 36%
    13:00 +4°C° 0 mm 0 mps 736 mmHg 37%
    14:00 +4°C° 0 mm 0 mps 736 mmHg 38%
    15:00 +6°C° 0 mm 1 mps 735 mmHg 40%
    16:00 +4°C° 0 mm 1 mps 736 mmHg 45%
    17:00 +3°C° 0 mm 1 mps 736 mmHg 50%
    18:00 +2°C° 0 mm 1 mps 736 mmHg 54%
    19:00 +1°C° 0 mm 1 mps 736 mmHg 55%
    20:00 +1°C° 0 mm 1 mps 736 mmHg 55%
    21:00 +1°C° 0 mm 1 mps 736 mmHg 55%
    22:00 +1°C° 0 mm 1 mps 736 mmHg 54%
    23:00 +1°C° 0 mm 1 mps 735 mmHg 53%

    Day after tomorrow, 19 January, Saturday

    Time Temperature Precipitation Wind Pressure Humidity
    00:00 +1°C° 0 mm 1 mps 735 mmHg 52%
    01:00 +1°C° 0 mm 1 mps 735 mmHg 51%
    02:00 +1°C° 0 mm 1 mps 735 mmHg 49%
    03:00 +1°C° 0 mm 1 mps 735 mmHg 48%
    04:00 +1°C° 0 mm 1 mps 735 mmHg 47%
    05:00 +1°C° 0 mm 1 mps 735 mmHg 45%
    06:00 +1°C° 0 mm 1 mps 734 mmHg 44%
    07:00 +2°C° 0 mm 1 mps 734 mmHg 42%
    08:00 +2°C° 0 mm 1 mps 734 mmHg 40%
    09:00 +3°C° 0 mm 1 mps 734 mmHg 38%
    10:00 +3°C° 0 mm 0 mps 734 mmHg 34%
    11:00 +4°C° 0 mm 0 mps 734 mmHg 31%
    12:00 +6°C° 0 mm 0 mps 734 mmHg 27%
    13:00 +6°C° 0 mm 0 mps 734 mmHg 30%
    14:00 +6°C° 0 mm 0 mps 733 mmHg 32%
    15:00 +6°C° 0 mm 0 mps 733 mmHg 35%
    16:00 +5°C° 0 mm 0 mps 734 mmHg 37%
    17:00 +4°C° 0 mm 0 mps 734 mmHg 38%
    18:00 +4°C° 0 mm 1 mps 734 mmHg 40%
    19:00 +4°C° 0 mm 1 mps 734 mmHg 39%
    20:00 +4°C° 0 mm 1 mps 734 mmHg 39%
    21:00 +4°C° 0 mm 1 mps 734 mmHg 38%
    22:00 +4°C° 0 mm 1 mps 734 mmHg 37%
    23:00 +4°C° 0 mm 1 mps 734 mmHg 37%

    20 January, Sunday

    Time Temperature Precipitation Wind Pressure Humidity
    00:00 +4°C° 0 mm 1 mps 735 mmHg 37%
    01:00 +4°C° 0 mm 1 mps 735 mmHg 38%
    02:00 +4°C° 0 mm 1 mps 735 mmHg 39%
    03:00 +4°C° 0 mm 1 mps 735 mmHg 40%
    04:00 +4°C° 0 mm 1 mps 735 mmHg 43%
    05:00 +3°C° 0 mm 1 mps 735 mmHg 47%
    06:00 +3°C° 0 mm 1 mps 735 mmHg 50%
    07:00 +3°C° 0 mm 1 mps 735 mmHg 54%
    08:00 +3°C° 0 mm 1 mps 736 mmHg 58%
    09:00 +4°C° 0 mm 1 mps 736 mmHg 62%
    10:00 +4°C° 0 mm 1 mps 736 mmHg 64%
    11:00 +5°C° 0 mm 1 mps 736 mmHg 67%
    12:00 +5°C° 0 mm 1 mps 736 mmHg 69%
    13:00 +5°C° 0 mm 1 mps 736 mmHg 73%
    14:00 +4°C° 0 mm 2 mps 736 mmHg 76%
    15:00 +3°C° 0 mm 2 mps 736 mmHg 80%
    16:00 +3°C° 0 mm 2 mps 736 mmHg 84%
    17:00 +2°C° 0 mm 2 mps 736 mmHg 88%
    18:00 +2°C° 0 mm 2 mps 736 mmHg 92%
    19:00 +1°C° 0 mm 2 mps 736 mmHg 93%
    20:00 +1°C° 0 mm 2 mps 736 mmHg 93%
    21:00 +1°C° 0 mm 2 mps 736 mmHg 94%
    22:00 +1°C° 0 mm 2 mps 736 mmHg 93%
    23:00 +1°C° 0 mm 2 mps 736 mmHg 92%

    21 January, Monday

    Time Temperature Precipitation Wind Pressure Humidity
    00:00 +1°C° 0 mm 2 mps 736 mmHg 92%
    01:00 +1°C° 0 mm 2 mps 736 mmHg 91%
    02:00 +1°C° 0 mm 2 mps 736 mmHg 90%
    03:00 +1°C° 0 mm 2 mps 736 mmHg 89%
    04:00 +1°C° 0 mm 2 mps 735 mmHg 88%
    05:00 -1°C° 0 mm 2 mps 735 mmHg 88%
    06:00 -1°C° 0 mm 2 mps 735 mmHg 87%
    07:00 -1°C° 0 mm 2 mps 735 mmHg 85%
    08:00 +1°C° 0 mm 2 mps 735 mmHg 83%
    09:00 0°C° 0 mm 3 mps 735 mmHg 81%
    10:00 +1°C° 0 mm 3 mps 734 mmHg 76%
    11:00 +2°C° 0 mm 3 mps 734 mmHg 71%
    12:00 +3°C° 0 mm 3 mps 733 mmHg 65%
    13:00 +3°C° 0 mm 3 mps 733 mmHg 65%
    14:00 +4°C° 0 mm 3 mps 732 mmHg 64%
    15:00 +4°C° 0 mm 3 mps 732 mmHg 64%
    16:00 +4°C° 0 mm 2 mps 732 mmHg 68%
    17:00 +3°C° 0 mm 2 mps 732 mmHg 72%
    18:00 +2°C° 0 mm 2 mps 732 mmHg 76%
    19:00 +2°C° 0 mm 2 mps 731 mmHg 74%
    20:00 +3°C° 0 mm 1 mps 731 mmHg 72%
    21:00 +3°C° 0 mm 1 mps 731 mmHg 70%
    22:00 +3°C° 0 mm 1 mps 731 mmHg 67%
    23:00 +4°C° 0 mm 1 mps 730 mmHg 64%

    22 January, Tuesday

    Time Temperature Precipitation Wind Pressure Humidity
    00:00 +4°C° 0 mm 1 mps 730 mmHg 60%
    01:00 +4°C° 0 mm 1 mps 730 mmHg 58%
    02:00 +4°C° 0 mm 1 mps 730 mmHg 55%
    03:00 +4°C° 0 mm 1 mps 730 mmHg 53%
    04:00 +3°C° 0.2 mm 2 mps 730 mmHg 60%
    05:00 +2°C° 0.2 mm 3 mps 730 mmHg 67%
    06:00 +1°C° 0.2 mm 4 mps 731 mmHg 74%
    07:00 +1°C° 0.4 mm 5 mps 732 mmHg 78%
    08:00 -1°C° 0.4 mm 6 mps 733 mmHg 83%
    09:00 -1°C° 0.4 mm 7 mps 733 mmHg 87%
    10:00 -1°C° 0.1 mm 6 mps 734 mmHg 85%
    11:00 -2°C° 0.1 mm 6 mps 734 mmHg 82%
    12:00 -2°C° 0.1 mm 6 mps 734 mmHg 79%
    13:00 -2°C° 0 mm 5 mps 735 mmHg 76%
    14:00 -2°C° 0 mm 5 mps 735 mmHg 74%
    15:00 -2°C° 0 mm 4 mps 735 mmHg 71%
    16:00 -2°C° 0 mm 3 mps 735 mmHg 72%
    17:00 -2°C° 0 mm 2 mps 736 mmHg 72%
    18:00 -1°C° 0 mm 1 mps 736 mmHg 73%
    19:00 -1°C° 0 mm 1 mps 736 mmHg 73%
    20:00 -3°C° 0 mm 2 mps 736 mmHg 74%
    21:00 -4°C° 0 mm 2 mps 736 mmHg 74%
    22:00 -4°C° 0 mm 2 mps 736 mmHg 75%
    23:00 -4°C° 0 mm 2 mps 736 mmHg 76%
    Show more